Skip Navigation Links
NOAA logo - Click to go to the NOAA homepage
NOAA's National Weather Service
Alaska Aviation Weather Unit
  NWS logo - Click to go to the NWS homepage
Left Navbar Graphic     22 AKDT = 06 GMT

   
NOAA is celebrating 200 years of science, service, and stewardship. Visit the NOAA 200th celebration Web site to learn more.
USA.gov is the U.S. Government's official Web portal to all Federal, state and local government Web resources and services.
Facebook
NWS on Facebook

Important Change Regarding the AAWU Web Presence

 

Over the last several months, the AAWU has been working to navigate its webpages to a nationally supported server. Security, as well as other needs, have necessitated the change.  In the process, we have made an effort to enhance the functionality of our website, as well as some of our products. As of June 20, 2017, aawu.arh.noaa.gov will be discontinued. The new AAWU web address is weather.gov/aawu. It is now live and will run in-parallel with the old site until it is discontinued. Please send any feedback or questions regarding the new webpages to nws.ar.aawu.webauthors@noaa.gov.  Thank you for your patience during this time of transition.
AAWU Home :: Display TAF Add Bookmark
TAF PAOR 280537Z 2806/2906 30007KT P6SM SCT120
     FM290000 12009G16KT P6SM BKN150
     FM290500 13006KT P6SM BKN150=
METAR PAOR 280053Z 30009G15KT 10SM SCT090 BKN250 12/M06 A3005=

METAR PAOR 280153Z 33009G16KT 10SM SCT095 BKN250 12/M05 A3005=

METAR PAOR 280253Z 31010G14KT 270V330 10SM CLR 12/M05 A3005=

METAR PAOR 280353Z 32008G16KT 10SM CLR 11/M06 A3004=

METAR PAOR 280453Z 30007KT 10SM CLR 11/M06 A3004=

METAR PAOR 280553Z VRB06KT 10SM FEW080 SCT095 BKN170 09/M06 A3005=


NOAA's National Weather Service
Alaska Aviation Weather Unit
6930 Sand Lake Road
Anchorage, AK 99502-1845
Disclaimer
Credits
Glossary
Privacy Policy
About Us
Career Opportunities
Contact AAWU Internet Services Site last modified: April, 17th 2012